TimeMST,TemperatureF,Dew PointF,Humidity,Sea Level PressureIn,VisibilityMPH,Wind Direction,Wind SpeedMPH,Gust SpeedMPH,PrecipitationIn,Events,Conditions,WindDirDegrees,DateUTC
12:15 AM,-22.0,-31.0,63,30.40,-9999.0,Calm,Calm,-,N/A,,Clear,0,2013-01-04 07:15:00
12:35 AM,-23.8,-31.0,69,30.40,-9999.0,Calm,Calm,-,N/A,,Clear,0,2013-01-04 07:35:00
12:55 AM,-23.8,-31.0,69,30.39,-9999.0,Calm,Calm,-,N/A,,Clear,0,2013-01-04 07:55:00
1:35 AM,-22.0,-31.0,63,30.39,-9999.0,Calm,Calm,-,N/A,,Scattered Clouds,0,2013-01-04 08:35:00
1:55 AM,-22.0,-31.0,63,30.39,-9999.0,Calm,Calm,-,N/A,,Clear,0,2013-01-04 08:55:00
2:15 AM,-23.8,-32.8,63,30.39,-9999.0,Calm,Calm,-,N/A,,Clear,0,2013-01-04 09:15:00
9:36 AM,-14.8,-23.8,64,30.39,-9999.0,Calm,Calm,-,N/A,,Clear,0,2013-01-04 16:36:00
9:56 AM,-13.0,-20.2,70,30.38,-9999.0,Calm,Calm,-,N/A,,Clear,0,2013-01-04 16:56:00
10:16 AM,-9.4,-16.6,71,30.38,-9999.0,Calm,Calm,-,N/A,,Clear,0,2013-01-04 17:16:00
10:36 AM,-7.6,-14.8,71,30.37,-9999.0,Calm,Calm,-,N/A,,Clear,0,2013-01-04 17:36:00
10:56 AM,-7.6,-16.6,65,30.36,-9999.0,Calm,Calm,-,N/A,,Clear,0,2013-01-04 17:56:00
11:16 AM,-5.8,-14.8,65,30.35,-9999.0,Calm,Calm,-,N/A,,Clear,0,2013-01-04 18:16:00
11:35 AM,-5.8,-14.8,65,30.33,-9999.0,Calm,Calm,-,N/A,,Clear,0,2013-01-04 18:35:00
11:56 AM,-2.2,-14.8,55,30.32,-9999.0,Calm,Calm,-,N/A,,Clear,0,2013-01-04 18:56:00
12:15 PM,-4.0,-16.6,55,30.30,-9999.0,Calm,Calm,-,N/A,,Clear,0,2013-01-04 19:15:00
12:36 PM,-4.0,-16.6,55,30.29,-9999.0,Calm,Calm,-,N/A,,Clear,0,2013-01-04 19:36:00
12:56 PM,-2.2,-14.8,55,30.27,-9999.0,Calm,Calm,-,N/A,,Clear,0,2013-01-04 19:56:00
1:16 PM,-4.0,-16.6,55,30.26,-9999.0,Calm,Calm,-,N/A,,Clear,0,2013-01-04 20:16:00
1:35 PM,-2.2,-16.6,50,30.25,-9999.0,Calm,Calm,-,N/A,,Clear,0,2013-01-04 20:35:00
1:55 PM,-4.0,-16.6,55,30.24,-9999.0,Calm,Calm,-,N/A,,Clear,0,2013-01-04 20:55:00
2:16 PM,-0.4,-14.8,51,30.23,-9999.0,Calm,Calm,-,N/A,,Clear,0,2013-01-04 21:16:00
2:36 PM,-2.2,-14.8,55,30.22,-9999.0,Calm,Calm,-,N/A,,Clear,0,2013-01-04 21:36:00
2:56 PM,-2.2,-14.8,55,30.22,-9999.0,Calm,Calm,-,N/A,,Clear,0,2013-01-04 21:56:00
3:16 PM,-4.0,-14.8,60,30.22,-9999.0,Calm,Calm,-,N/A,,Clear,0,2013-01-04 22:16:00
3:36 PM,-4.0,-14.8,60,30.22,-9999.0,Calm,Calm,-,N/A,,Clear,0,2013-01-04 22:36:00
3:56 PM,-4.0,-14.8,60,30.22,-9999.0,Calm,Calm,-,N/A,,Clear,0,2013-01-04 22:56:00
4:36 PM,-5.8,-14.8,65,30.22,-9999.0,Calm,Calm,-,N/A,,Clear,0,2013-01-04 23:36:00
4:56 PM,-7.6,-16.6,65,30.22,-9999.0,Calm,Calm,-,N/A,,Clear,0,2013-01-04 23:56:00
5:16 PM,-7.6,-14.8,71,30.22,-9999.0,Calm,Calm,-,N/A,,Clear,0,2013-01-05 00:16:00
5:36 PM,-9.4,-18.4,65,30.23,-9999.0,Calm,Calm,-,N/A,,Clear,0,2013-01-05 00:36:00
5:55 PM,-13.0,-18.4,77,30.23,-9999.0,Calm,Calm,-,N/A,,Clear,0,2013-01-05 00:55:00
6:15 PM,-13.0,-18.4,77,30.23,-9999.0,Calm,Calm,-,N/A,,Clear,0,2013-01-05 01:15:00
6:36 PM,-14.8,-22.0,70,30.24,-9999.0,Calm,Calm,-,N/A,,Clear,0,2013-01-05 01:36:00
6:56 PM,-14.8,-22.0,70,30.24,-9999.0,Calm,Calm,-,N/A,,Clear,0,2013-01-05 01:56:00
7:16 PM,-16.6,-23.8,70,30.24,-9999.0,Calm,Calm,-,N/A,,Clear,0,2013-01-05 02:16:00
7:36 PM,-16.6,-23.8,70,30.24,-9999.0,Calm,Calm,-,N/A,,Clear,0,2013-01-05 02:36:00
7:56 PM,-16.6,-25.6,64,30.25,-9999.0,Calm,Calm,-,N/A,,Clear,0,2013-01-05 02:56:00
8:16 PM,-18.4,-25.6,70,30.24,-9999.0,Calm,Calm,-,N/A,,Clear,0,2013-01-05 03:16:00
8:36 PM,-18.4,-27.4,63,30.24,-9999.0,Calm,Calm,-,N/A,,Clear,0,2013-01-05 03:36:00
8:56 PM,-18.4,-25.6,70,30.24,-9999.0,Calm,Calm,-,N/A,,Clear,0,2013-01-05 03:56:00
9:16 PM,-20.2,-27.4,69,30.25,-9999.0,Calm,Calm,-,N/A,,Clear,0,2013-01-05 04:16:00
9:36 PM,-20.2,-27.4,69,30.25,-9999.0,Calm,Calm,-,N/A,,Clear,0,2013-01-05 04:36:00
9:56 PM,-20.2,-27.4,69,30.26,-9999.0,Calm,Calm,-,N/A,,Clear,0,2013-01-05 04:56:00
10:16 PM,-20.2,-27.4,69,30.26,-9999.0,Calm,Calm,-,N/A,,Clear,0,2013-01-05 05:16:00
10:36 PM,-20.2,-27.4,69,30.27,-9999.0,Calm,Calm,-,N/A,,Clear,0,2013-01-05 05:36:00
10:56 PM,-23.8,-31.0,69,30.27,-9999.0,Calm,Calm,-,N/A,,Clear,0,2013-01-05 05:56:00
11:16 PM,-23.8,-31.0,69,30.27,-9999.0,Calm,Calm,-,N/A,,Clear,0,2013-01-05 06:16:00
11:36 PM,-22.0,-29.2,69,30.28,-9999.0,Calm,Calm,-,N/A,,Clear,0,2013-01-05 06:36:00
11:56 PM,-22.0,-31.0,63,30.28,-9999.0,Calm,Calm,-,N/A,,Clear,0,2013-01-05 06:56:00